Tulsa, OK

8:37 AM CST on February 09, 2016 (GMT -0600)
Tulsa International

Weather History for KTUL - May, 2012

Change the Weather History Date:

Friday, May 25, 2012

  Actual Average Record
Temperature  
Mean Temperature 83 °F 72 °F  
Max Temperature 91 °F 82 °F 97 °F (2006)
Min Temperature 74 °F 62 °F 45 °F (1925)
Cooling Degree Days 18 7  
Month to date cooling degree days 210 121  
Year to date cooling degree days 391 186  
Growing Degree Days 32 (Base 50)    
Moisture  
Dew Point 68 °F    
Average Humidity 67    
Maximum Humidity 84    
Minimum Humidity 50    
Precipitation  
Precipitation 0.00 in 0.19 in 1.80 in (1974)
Month to date precipitation 0.15 4.78  
Year to date precipitation 12.23 15.37  
Sea Level Pressure  
Sea Level Pressure 29.79 in    
Wind  
Wind Speed 16 mph (SSE)    
Max Wind Speed 29 mph    
Max Gust Speed 36 mph    
Visibility 10 miles    
Events      
T = Trace of Precipitation, MM = Missing Value Source: NWS Daily Summary

Daily Weather History Graph

Daily Weather History Graph

Search for Another Location

Airport or City:

Trip Planner

Search our weather history database for the weather conditions in past years. The results will help you decide how hot, cold, wet, or windy it might be!

Date:

Astronomy

May. 25, 2012 Rise Set
Actual Time 6:10 AM CDT 8:31 PM CDT
Civil Twilight 5:41 AM CDT 9:00 PM CDT
Nautical Twilight 5:04 AM CDT 9:36 PM CDT
Astronomical Twilight 4:25 AM CDT 10:16 PM CDT
Moon 10:08 AM CDT (5/25) No Moon Set
Length of Visible Light 15h 19m
Length of Day
14h 20m
Waxing Crescent, 20% of the Moon is Illuminated
May 25
Waxing Crescent
May 28
First Quarter
Jun 4
Full
Jun 11
Last Quarter
Jun 19
New

Hourly Weather History & Observations

Time (CDT) Temp. Heat Index Dew Point Humidity Pressure Visibility Wind Dir Wind Speed Gust Speed Precip Events Conditions
12:53 AM 75.9 °F - 68.0 °F 76% 29.67 in 10.0 mi ESE 8.1 mph - N/A   Partly Cloudy
1:53 AM 73.9 °F - 68.0 °F 82% 29.68 in 10.0 mi ESE 8.1 mph - N/A   Clear
2:53 AM 73.9 °F - 68.0 °F 82% 29.69 in 10.0 mi ESE 9.2 mph - N/A   Clear
3:53 AM 75.0 °F - 68.0 °F 79% 29.70 in 10.0 mi SE 8.1 mph - N/A   Clear
4:53 AM 75.9 °F - 68.0 °F 76% 29.71 in 10.0 mi SSE 12.7 mph - N/A   Clear
5:53 AM 75.9 °F - 68.0 °F 76% 29.74 in 10.0 mi SSE 15.0 mph 20.7 mph N/A   Clear
6:53 AM 75.9 °F - 68.0 °F 76% 29.78 in 10.0 mi SSE 15.0 mph 23.0 mph N/A   Clear
7:53 AM 77.0 °F - 68.0 °F 74% 29.81 in 10.0 mi SSE 18.4 mph 26.5 mph N/A   Partly Cloudy
8:27 AM 77.0 °F - 68.0 °F 74% 29.85 in 10.0 mi SSE 17.3 mph 26.5 mph N/A   Mostly Cloudy
8:53 AM 77.0 °F - 68.0 °F 74% 29.83 in 10.0 mi South 17.3 mph 26.5 mph N/A   Mostly Cloudy
9:53 AM 78.1 °F - 66.9 °F 68% 29.85 in 10.0 mi SSE 18.4 mph 24.2 mph N/A   Overcast
10:53 AM 81.0 °F 83.3 °F 66.9 °F 62% 29.85 in 10.0 mi SSE 17.3 mph 28.8 mph N/A   Mostly Cloudy
11:53 AM 82.9 °F 85.8 °F 68.0 °F 60% 29.85 in 10.0 mi South 19.6 mph - N/A   Mostly Cloudy
12:53 PM 84.0 °F 87.0 °F 68.0 °F 58% 29.84 in 10.0 mi SSE 16.1 mph 21.9 mph N/A   Mostly Cloudy
1:34 PM 86.0 °F 89.4 °F 68.0 °F 55% 29.85 in 10.0 mi SSE 17.3 mph 24.2 mph N/A   Scattered Clouds
1:53 PM 87.1 °F 90.6 °F 68.0 °F 53% 29.83 in 10.0 mi South 17.3 mph 27.6 mph N/A   Partly Cloudy
2:53 PM 89.1 °F 92.9 °F 68.0 °F 50% 29.81 in 10.0 mi SE 18.4 mph 26.5 mph N/A   Partly Cloudy
3:53 PM 90.0 °F 93.6 °F 68.0 °F 48% 29.79 in 10.0 mi SSE 16.1 mph 27.6 mph N/A   Clear
4:53 PM 90.0 °F 93.6 °F 68.0 °F 48% 29.77 in 10.0 mi SSE 20.7 mph 32.2 mph N/A   Clear
5:53 PM 90.0 °F 93.6 °F 68.0 °F 48% 29.77 in 10.0 mi SSE 18.4 mph 33.4 mph N/A   Clear
6:53 PM 89.1 °F 92.9 °F 68.0 °F 50% 29.77 in 10.0 mi SSE 21.9 mph 29.9 mph N/A   Clear
7:53 PM 87.1 °F 90.6 °F 68.0 °F 53% 29.78 in 10.0 mi South 19.6 mph 29.9 mph N/A   Clear
8:53 PM 84.9 °F 88.2 °F 68.0 °F 57% 29.79 in 10.0 mi South 19.6 mph 26.5 mph N/A   Clear
9:53 PM 84.0 °F 87.0 °F 68.0 °F 58% 29.81 in 10.0 mi South 15.0 mph 23.0 mph N/A   Clear
10:53 PM 82.9 °F 85.8 °F 68.0 °F 60% 29.85 in 10.0 mi South 15.0 mph - N/A   Clear
11:53 PM 82.0 °F 84.9 °F 68.0 °F 62% 29.86 in 10.0 mi South 11.5 mph - N/A   Clear